Regional Weather Roundup
Issued by NWS

Home | Current Version | Previous Version | Text Only | Print | Product List | Glossary On
Versions: 1 2 3 4 5 6 7 8 9 10 11 12 13 14 15 16 17 18 19 20 21 22 23 24 25 26 27 28 29 30 31 32 33 34 35 36 37 38 39 40 41 42 43 44 45 46 47 48 49 50
000
ASUS44 KFWD 010615
RWRTX
NORTH TEXAS HOURLY WEATHER ROUNDUP
NATIONAL WEATHER SERVICE FORT WORTH TX
1200 AM CST SUN MAR 01 2015

NOTE: "FAIR" INDICATES FEW OR NO CLOUDS BELOW 12,000 FEET WITH NO
SIGNIFICANT WEATHER AND/OR OBSTRUCTIONS TO VISIBILITY.

TXZ118-119-010700-
DALLAS/FORT WORTH METROPLEX

CITY           SKY/WX    TMP DP  RH WIND       PRES   REMARKS
DFW AIRPORT    FRZ RAIN  32  30  92 CALM      30.33F FOG
6HR MIN TEMP:  31; 6HR MAX TEMP:  32; 6HR PCP:  0.07;

DALLAS LOVE    FRZ RAIN  32  30  92 NE3       30.33F FOG
6HR MIN TEMP:  32; 6HR MAX TEMP:  32; 6HR PCP:  0.03;

FTW MEACHAM    CLOUDY    33  30  88 NE3       30.32F FOG
6HR MIN TEMP:  31; 6HR MAX TEMP:  33; 6HR PCP:  0.02;

DAL-EXECUTIVE  CLOUDY    32  30  92 NE5       30.32F FOG     WCI  27
6HR MIN TEMP:  31; 6HR MAX TEMP:  32; 6HR PCP:  0.07;

FTW-ALLIANCE   CLOUDY    31  30  96 NE3       30.32F FOG
6HR MIN TEMP:  30; 6HR MAX TEMP:  31; 6HR PCP:  0.03;

FTW-SPINKS     DRIZZLE   32  31  96 CALM      30.34F
6HR MIN TEMP:  31; 6HR MAX TEMP:  32; 6HR PCP:  0.01;

ARLINGTON      FRZ RAIN  33  29  85 NE6       30.32F FOG     WCI  28
6HR MIN TEMP:  32; 6HR MAX TEMP:  33; 6HR PCP:  0.03;

GRAND PRAIRIE  CLOUDY    32  32 100 NE5       30.35F WCI  27
6HR MIN TEMP:  31; 6HR MAX TEMP:  32; 6HR PCP:  0.01;

ADDISON        MIX PCPN  32  32 100 E3        30.34F
6HR MIN TEMP:  32; 6HR MAX TEMP:  32; 6HR PCP:  0.02;

MESQUITE       CLOUDY    32  31  96 N3        30.34F
6HR MIN TEMP:  31; 6HR MAX TEMP:  32; 6HR PCP:  0.09;

LANCASTER      CLOUDY    32  30  93 CALM      30.35S FOG
6HR MIN TEMP:  31; 6HR MAX TEMP:  32; 6HR PCP:  0.04;

$$

TXZ091>094-102>105-117-120-121-131>134-010700-
NORTH CENTRAL TEXAS

CITY           SKY/WX    TMP DP  RH WIND       PRES   REMARKS
SHRMAN/DENISON CLOUDY    32  32 100 CALM      30.33F FOG
6HR MIN TEMP:  31; 6HR MAX TEMP:  32; 6HR PCP:  0.03;

GAINESVILLE    MIX PCPN  30  29  97 CALM      30.34F
6HR MIN TEMP:  29; 6HR MAX TEMP:  30;

BOWIE          CLOUDY    30  29  99 CALM      30.30F
6HR MIN TEMP:  29; 6HR MAX TEMP:  30; 6HR PCP:  0.01;

BRIDGEPORT     DRIZZLE   31  31 100 CALM      30.33F
6HR MIN TEMP:  30; 6HR MAX TEMP:  31;

DECATUR        CLOUDY    30  30 100 CALM      30.30F FOG
6HR MIN TEMP:  29; 6HR MAX TEMP:  30;

DENTON         CLOUDY    31  30  96 NE3       30.33F
6HR MIN TEMP:  30; 6HR MAX TEMP:  31; 6HR PCP:  0.07;

MCKINNEY       FRZ RAIN  32  31  96 E3        30.34S FOG
6HR MIN TEMP:  31; 6HR MAX TEMP:  32; 6HR PCP:  0.05;

GREENVILLE     LGT RAIN  32  32 100 N5        30.35R WCI  27
TERRELL        LGT RAIN  34  31  88 N9        30.34S FOG     WCI  27
6HR MIN TEMP:  33; 6HR MAX TEMP:  34; 6HR PCP:  0.15;

WAXAHACHIE     RAIN      32  32 100 N5        30.33F WCI  27
6HR MIN TEMP:  31; 6HR MAX TEMP:  32; 6HR PCP:  0.02;

CLEBURNE       LGT RAIN  32  32 100 CALM      30.32F
GRANBURY       CLOUDY    32  31  95 CALM      30.34S FOG
6HR MIN TEMP:  32; 6HR MAX TEMP:  32;

$$

TXZ083>090-098>101-113>116-127>130-139>142-154-155-010700-
WESTERN NORTH TEXAS

CITY           SKY/WX    TMP DP  RH WIND       PRES   REMARKS
WICHITA FALLS  CLOUDY    29  27  92 NE5       30.32S FOG     WCI  24
6HR MIN TEMP:  28; 6HR MAX TEMP:  29;

WF-KICKAPOO    CLOUDY    31  31  97 CALM      30.33S FOG
6HR MIN TEMP:  30; 6HR MAX TEMP:  31;

VERNON         CLOUDY    29  25  85 CALM      30.33S
6HR MIN TEMP:  26; 6HR MAX TEMP:  29;

ABILENE        CLOUDY    29  27  92 E5        30.25S FOG     WCI  24
6HR MIN TEMP:  28; 6HR MAX TEMP:  29;

ABILENE-DYESS  CLOUDY    28  27  95 CALM      30.25R FOG
6HR MIN TEMP:  28; 6HR MAX TEMP:  29; 6HR PCP: TRACE;

BRECKENRIDGE   CLOUDY    32  32 100 E3        30.28F FOG
6HR MIN TEMP:  30; 6HR MAX TEMP:  32;

GRAHAM         CLOUDY    30  30 100 CALM      30.29F FOG
6HR MIN TEMP:  29; 6HR MAX TEMP:  30;

MINERAL WELLS  MIX PCPN  30  28  92 E3        30.29F FOG
6HR MIN TEMP:  29; 6HR MAX TEMP:  30; 6HR PCP:  0.01;

STEPHENVILLE   CLOUDY    31  29  94 CALM      30.31F
6HR MIN TEMP:  30; 6HR MAX TEMP:  31;

COMANCHE       CLOUDY    31  31 100 CALM      30.28F FOG
6HR MIN TEMP:  30; 6HR MAX TEMP:  31;

BROWNWOOD      CLOUDY    32  32 100 N15       30.28F FOG     WCI  22
COLEMAN        CLOUDY    31  31 100 NE6       30.26F FOG     WCI  25
6HR MIN TEMP:  30; 6HR MAX TEMP:  31;

BRADY          CLOUDY    30  30 100 CALM      30.23S FOG
$$

TXZ143>147-156>162-174-175-010700-
CENTRAL TEXAS

CITY           SKY/WX    TMP DP  RH WIND       PRES   REMARKS
WACO           LGT RAIN  33  31  92 N9        30.31F FOG     WCI  25
6HR MIN TEMP:  32; 6HR MAX TEMP:  33; 6HR PCP:  0.03;

WACO-MCGREGOR    N/A     34  27  75 N9        30.32S WCI  26
6HR MIN TEMP:  32; 6HR MAX TEMP:  34; 6HR PCP:  0.03;

HILLSBORO      CLOUDY    33  31  92 N7        30.31F FOG     WCI  27
6HR MIN TEMP:  33; 6HR MAX TEMP:  33; 6HR PCP:  0.02;

CORSICANA      RAIN      34  32  92 N10       30.32F FOG     WCI  26
6HR MIN TEMP:  34; 6HR MAX TEMP:  35; 6HR PCP:  0.03;

MEXIA          CLOUDY    33  32  96 MISG      30.29F FOG
6HR MIN TEMP:  33; 6HR MAX TEMP:  36; 6HR PCP:  0.01;

HEARNE         CLOUDY    38  37  97 N8        30.29F FOG     WCI  32
6HR MIN TEMP:  38; 6HR MAX TEMP:  43; 6HR PCP:  0.01;

CAMERON        CLOUDY    36  35  97 N9        30.29F FOG     WCI  29
6HR MIN TEMP:  36; 6HR MAX TEMP:  38; 6HR PCP:  0.02;

TEMPLE         CLOUDY    34  28  80 N12       30.28F WCI  25
6HR MIN TEMP:  32; 6HR MAX TEMP:  34;

KILLEEN        FRZ DRZL  32  32 100 N8        30.27S FOG     WCI  25
6HR MIN TEMP:  31; 6HR MAX TEMP:  32; 6HR PCP: TRACE;

KILLEEN-SKYLRK CLOUDY    34  27  75 CALM      30.27S
6HR MIN TEMP:  34; 6HR MAX TEMP:  34; 6HR PCP:  0.04;

FORT HOOD      MIX PCPN  32  32 100 N10       30.27S FOG     WCI  24
6HR MIN TEMP:  32; 6HR MAX TEMP:  32; 6HR PCP:  0.02;

GATESVILLE     CLOUDY    32  32 100 CALM      30.31F FOG
HAMILTON       CLOUDY    32  32 100 N6        30.29S FOG     WCI  26
6HR MIN TEMP:  32; 6HR MAX TEMP:  32;

LAMPASAS       CLOUDY    33  32  98 N5        30.26F FOG     WCI  28
6HR MIN TEMP:  32; 6HR MAX TEMP:  33;

$$

TXZ095>097-106>112-122>126-135>138-148>153-164>167-010700-
EAST TEXAS

CITY           SKY/WX    TMP DP  RH WIND       PRES   REMARKS
PARIS          MOCLDY    32  28  86 CALM      30.35S
6HR MIN TEMP:  30; 6HR MAX TEMP:  32; 6HR PCP:  0.13;

SULPHUR SPRNGS LGT RAIN  33  33  99 N7        30.36S WCI  27
6HR MIN TEMP:  32; 6HR MAX TEMP:  33; 6HR PCP:  0.05;

MOUNT PLEASANT CLOUDY    35  34  96 N5        30.34F WCI  31
6HR MIN TEMP:  35; 6HR MAX TEMP:  36;

GILMER         CLOUDY    36  32  86 N6        30.31F WCI  31
6HR MIN TEMP:  35; 6HR MAX TEMP:  38;

MINEOLA        CLOUDY    34  34 100 N7        30.33F FOG     WCI  28
TYLER          LGT RAIN  37  31  78 N7        30.30S WCI  32
6HR MIN TEMP:  37; 6HR MAX TEMP:  40; 6HR PCP:  0.01;

LONGVIEW       CLOUDY    40  30  67 N3        30.29F
6HR MIN TEMP:  40; 6HR MAX TEMP:  44; 6HR PCP: TRACE;

MARSHALL       CLOUDY    41  33  72 N6        30.31F WCI  38
6HR MIN TEMP:  41; 6HR MAX TEMP:  46;

ATHENS         CLOUDY    34  32  93 N7        30.30F WCI  28
PALESTINE      CLOUDY    39  38  99 N3        30.30F FOG
JACKSONVILLE   CLOUDY    40  38  92 NE7       30.29F WCI  36
HENDERSON      CLOUDY    40  34  76 CALM      30.31R
6HR MIN TEMP:  40; 6HR MAX TEMP:  45;

NACOGDOCHES    CLOUDY    45  39  81 NE5       30.28F
6HR MIN TEMP:  45; 6HR MAX TEMP:  48; 6HR PCP:  0.04;

LUFKIN         LGT RAIN  48  43  82 NE7       30.27F
6HR MIN TEMP:  48; 6HR MAX TEMP:  52; 6HR PCP:  0.09;

$$

SUPPLEMENTAL OBSERVATIONS (CENTRAL)

CITY           SKY/WX    TMP DP  RH WIND       PRES   REMARKS
$$

SUPPLEMENTAL OBSERVATIONS (WEST)

CITY           SKY/WX    TMP DP  RH WIND       PRES   REMARKS
$$

SUPPLEMENTAL OBSERVATIONS (EAST)

CITY           SKY/WX    TMP DP  RH WIND       PRES   REMARKS
$$

SUPPLEMENTAL OBSERVATIONS ARE A COLLECTION OF AUTOMATED INSTRUMENTS
THAT ARE MAINTAINED BY A VARIETY OF FEDERAL AND STATE AGENCIES.
CERTAIN ELEMENTS...SUCH AS HUMIDITY VALUES AND SUSTAINED WIND
SPEEDS...MAY BE APPROXIMATED.



USA.gov is the U.S. government's official web portal to all federal, state and local government web resources and services.